SP9WPN-12 Weather Reports


time (UTC)temp
F
wind
direction
speed
knots
gust
knots
rain 1hr
in
rain 24hr
in
rain mn
in
humidity
%
barometer
mb
20260506171102 74 0.0 0.0 0.00 0.00 0.00 45 1005.3
20260506170104 74 0.0 0.0 0.00 0.00 0.00 45 1005.2
20260506165107 74 0.0 0.0 0.00 0.00 0.00 45 1005.2
20260506164109 74 0.0 0.0 0.00 0.00 0.00 44 1005.2
20260506163111 74 0.0 0.0 0.00 0.00 0.00 44 1005.4
20260506162113 75 0.0 0.0 0.00 0.00 0.00 43 1005.5
20260506161115 75 0.0 0.0 0.00 0.00 0.00 42 1005.5
20260506160117 76 0.0 0.0 0.00 0.00 0.00 40 1005.4
20260506155120 76 0.0 0.0 0.00 0.00 0.00 40 1005.4
20260506154122 77 0.0 0.0 0.00 0.00 0.00 39 1005.4
20260506153126 78 0.0 0.0 0.00 0.00 0.00 38 1005.5
20260506152128 77 0.0 0.0 0.00 0.00 0.00 38 1005.5
20260506151131 77 0.0 0.0 0.00 0.00 0.00 38 1005.5
20260506150133 80 0.0 0.0 0.00 0.00 0.00 36 1005.4
20260506145135 79 0.0 0.0 0.00 0.00 0.00 36 1005.5
20260506144136 80 0.0 0.0 0.00 0.00 0.00 36 1005.7
20260506143139 81 0.0 0.0 0.00 0.00 0.00 35 1005.7
20260506142142 79 0.0 0.0 0.00 0.00 0.00 37 1005.9
20260506141144 77 0.0 0.0 0.00 0.00 0.00 37 1006.0
20260506140146 77 0.0 0.0 0.00 0.00 0.00 36 1006.0
20260506135148 80 0.0 0.0 0.00 0.00 0.00 36 1005.9
20260506134151 80 0.0 0.0 0.00 0.00 0.00 36 1005.8
20260506133152 79 0.0 0.0 0.00 0.00 0.00 38 1006.1
20260506132154 80 0.0 0.0 0.00 0.00 0.00 37 1006.0
20260506131157 79 0.0 0.0 0.00 0.00 0.00 39 1006.1
20260506130159 78 0.0 0.0 0.00 0.00 0.00 39 1006.2
20260506125201 80 0.0 0.0 0.00 0.00 0.00 37 1006.3
20260506124204 82 0.0 0.0 0.00 0.00 0.00 36 1006.3
20260506123206 79 0.0 0.0 0.00 0.00 0.00 40 1006.5
20260506122209 76 0.0 0.0 0.00 0.00 0.00 41 1006.7
20260506121211 79 0.0 0.0 0.00 0.00 0.00 40 1006.5
20260506120213 78 0.0 0.0 0.00 0.00 0.00 40 1006.6
20260506115215 77 0.0 0.0 0.00 0.00 0.00 40 1006.6
20260506114217 78 0.0 0.0 0.00 0.00 0.00 41 1006.5
20260506113220 76 0.0 0.0 0.00 0.00 0.00 41 1006.5
20260506112222 79 0.0 0.0 0.00 0.00 0.00 41 1006.5
20260506111223 78 0.0 0.0 0.00 0.00 0.00 42 1006.7
20260506110225 79 0.0 0.0 0.00 0.00 0.00 42 1006.7
20260506105227 77 0.0 0.0 0.00 0.00 0.00 43 1006.8
20260506104229 78 0.0 0.0 0.00 0.00 0.00 43 1006.7
20260506103231 77 0.0 0.0 0.00 0.00 0.00 42 1006.9
20260506102233 76 0.0 0.0 0.00 0.00 0.00 44 1007.0
20260506101235 77 0.0 0.0 0.00 0.00 0.00 42 1007.0
20260506100237 76 0.0 0.0 0.00 0.00 0.00 45 1007.2
20260506095240 75 0.0 0.0 0.00 0.00 0.00 46 1007.1
20260506094243 74 0.0 0.0 0.00 0.00 0.00 47 1007.0
20260506093245 77 0.0 0.0 0.00 0.00 0.00 44 1006.7
20260506092247 76 0.0 0.0 0.00 0.00 0.00 45 1006.8
20260506091250 76 0.0 0.0 0.00 0.00 0.00 46 1006.8
20260506090252 75 0.0 0.0 0.00 0.00 0.00 46 1006.7
20260506085254 75 0.0 0.0 0.00 0.00 0.00 47 1006.6
20260506084256 73 0.0 0.0 0.00 0.00 0.00 50 1006.8
20260506083258 73 0.0 0.0 0.00 0.00 0.00 50 1006.8
20260506082304 74 0.0 0.0 0.00 0.00 0.00 48 1006.7
20260506081302 73 0.0 0.0 0.00 0.00 0.00 50 1006.8
20260506080304 72 0.0 0.0 0.00 0.00 0.00 52 1006.9
20260506073311 70 0.0 0.0 0.00 0.00 0.00 53 1006.9
20260506072313 70 0.0 0.0 0.00 0.00 0.00 54 1006.9
20260506071315 70 0.0 0.0 0.00 0.00 0.00 56 1006.9
20260506070317 68 0.0 0.0 0.00 0.00 0.00 57 1007.0
20260506062326 65 0.0 0.0 0.00 0.00 0.00 60 1007.1
20260506061328 64 0.0 0.0 0.00 0.00 0.00 62 1007.1
20260506060330 64 0.0 0.0 0.00 0.00 0.00 60 1007.0
20260506051340 62 0.0 0.0 0.00 0.00 0.00 62 1006.9
20260506050342 62 0.0 0.0 0.00 0.00 0.00 63 1006.9
20260506044347 61 0.0 0.0 0.00 0.00 0.00 64 1007.0
20260506043349 58 0.0 0.0 0.00 0.00 0.00 68 1007.1
20260506042351 57 0.0 0.0 0.00 0.00 0.00 71 1007.2
20260506041354 56 0.0 0.0 0.00 0.00 0.00 73 1007.3
20260506040357 56 0.0 0.0 0.00 0.00 0.00 71 1007.1
20260506035359 57 0.0 0.0 0.00 0.00 0.00 69 1007.1
20260506034401 57 0.0 0.0 0.00 0.00 0.00 68 1007.0
20260506033404 57 0.0 0.0 0.00 0.00 0.00 68 1007.0
20260506032407 58 0.0 0.0 0.00 0.00 0.00 67 1006.9
20260506031409 57 0.0 0.0 0.00 0.00 0.00 68 1006.9
20260506030411 58 0.0 0.0 0.00 0.00 0.00 67 1006.9
20260506025413 58 0.0 0.0 0.00 0.00 0.00 66 1006.9
20260506024415 59 0.0 0.0 0.00 0.00 0.00 64 1006.8
20260506023417 60 0.0 0.0 0.00 0.00 0.00 62 1006.8
20260506022419 60 0.0 0.0 0.00 0.00 0.00 61 1006.7
20260506021421 60 0.0 0.0 0.00 0.00 0.00 60 1006.7
20260506020423 60 0.0 0.0 0.00 0.00 0.00 61 1006.7
20260506015425 59 0.0 0.0 0.00 0.00 0.00 61 1006.7
20260506014428 60 0.0 0.0 0.00 0.00 0.00 59 1006.7
20260506013429 60 0.0 0.0 0.00 0.00 0.00 58 1006.6
20260506012432 60 0.0 0.0 0.00 0.00 0.00 57 1006.6
20260506011435 60 0.0 0.0 0.00 0.00 0.00 57 1006.7
20260506010438 60 0.0 0.0 0.00 0.00 0.00 56 1006.5
20260506005440 59 0.0 0.0 0.00 0.00 0.00 57 1006.8
20260506004443 61 0.0 0.0 0.00 0.00 0.00 55 1006.7
20260506003445 60 0.0 0.0 0.00 0.00 0.00 56 1006.7
20260506002447 60 0.0 0.0 0.00 0.00 0.00 56 1006.7
20260506001449 61 0.0 0.0 0.00 0.00 0.00 54 1006.6
20260506000452 62 0.0 0.0 0.00 0.00 0.00 52 1006.6
20260505235454 63 0.0 0.0 0.00 0.00 0.00 50 1006.6
20260505234455 64 0.0 0.0 0.00 0.00 0.00 48 1006.6
20260505233458 64 0.0 0.0 0.00 0.00 0.00 47 1006.7
20260505232500 65 0.0 0.0 0.00 0.00 0.00 47 1006.7
20260505231502 64 0.0 0.0 0.00 0.00 0.00 48 1006.7
20260505230505 64 0.0 0.0 0.00 0.00 0.00 48 1006.8
20260505225507 64 0.0 0.0 0.00 0.00 0.00 49 1006.8
20260505224509 64 0.0 0.0 0.00 0.00 0.00 49 1006.9
20260505223511 65 0.0 0.0 0.00 0.00 0.00 48 1006.9
20260505222514 65 0.0 0.0 0.00 0.00 0.00 48 1006.9
20260505221517 66 0.0 0.0 0.00 0.00 0.00 47 1006.9
20260505220519 66 0.0 0.0 0.00 0.00 0.00 47 1006.9
20260505215522 67 0.0 0.0 0.00 0.00 0.00 46 1007.0
20260505214524 67 0.0 0.0 0.00 0.00 0.00 46 1007.0
20260505213527 67 0.0 0.0 0.00 0.00 0.00 46 1007.1
20260505212530 67 0.0 0.0 0.00 0.00 0.00 46 1007.1
20260505211532 67 0.0 0.0 0.00 0.00 0.00 45 1007.1
20260505210535 68 0.0 0.0 0.00 0.00 0.00 45 1007.0
20260505205537 68 0.0 0.0 0.00 0.00 0.00 44 1007.0
20260505204540 68 0.0 0.0 0.00 0.00 0.00 44 1006.9
20260505203542 68 0.0 0.0 0.00 0.00 0.00 44 1006.9
20260505202544 68 0.0 0.0 0.00 0.00 0.00 43 1006.9
20260505201547 68 0.0 0.0 0.00 0.00 0.00 43 1006.8
20260505200550 68 0.0 0.0 0.00 0.00 0.00 43 1006.8
20260505195552 68 0.0 0.0 0.00 0.00 0.00 42 1006.8
20260505194554 69 0.0 0.0 0.00 0.00 0.00 41 1006.8
20260505193557 69 0.0 0.0 0.00 0.00 0.00 41 1006.8
20260505192600 69 0.0 0.0 0.00 0.00 0.00 40 1006.8
20260505191602 69 0.0 0.0 0.00 0.00 0.00 39 1006.8
20260505190604 69 0.0 0.0 0.00 0.00 0.00 39 1006.8
20260505185606 69 0.0 0.0 0.00 0.00 0.00 38 1006.7
20260505184608 69 0.0 0.0 0.00 0.00 0.00 37 1006.6
20260505183611 70 0.0 0.0 0.00 0.00 0.00 36 1006.5
20260505182613 69 0.0 0.0 0.00 0.00 0.00 36 1006.5
20260505181616 72 0.0 0.0 0.00 0.00 0.00 32 1006.3
20260505180617 72 0.0 0.0 0.00 0.00 0.00 32 1006.2
20260505175620 73 0.0 0.0 0.00 0.00 0.00 31 1006.2
20260505174621 74 0.0 0.0 0.00 0.00 0.00 29 1006.2
20260505173623 74 0.0 0.0 0.00 0.00 0.00 27 1006.1
20260505172626 75 0.0 0.0 0.00 0.00 0.00 26 1005.9
20260505171628 76 0.0 0.0 0.00 0.00 0.00 25 1005.8